Regional Weather Roundup
Issued by NWS Pendleton, OR

Home | Current Version | Previous Version | Text Only | Print | Product List | Glossary On
Versions: 1 2 3 4 5 6 7 8 9 10 11 12 13 14 15 16 17 18 19 20 21 22 23 24 25 26 27 28 29 30 31 32 33 34 35 36 37 38 39 40 41 42 43 44 45 46 47 48 49 50
000
ASUS46 KPDT 290525
RWRPDT
PENDLETON REGIONAL WEATHER ROUNDUP
NATIONAL WEATHER SERVICE PENDLETON OREGON
1000 PM PDT THU JUL 28 2016

NOTE: FAIR INDICATES FEW OR NO CLOUDS BELOW 12,000 FEET WITH NO
SIGNIFICANT WEATHER AND/OR OBSTRUCTIONS TO VISIBILITY.

# INDICATES UNOFFICIAL STATION AND DATA

WAZ520-290610-
EAST SLOPES OF WASHINGTON CASCADES

CITY            SKY/WX      TMP DP  RH  WIND    PRES   REMARKS
#CLE ELUM HS    N/A         74  54  50  NW1     29.98S
#CLE ELUM 2NW   N/A         73  52  48  SW2     N/A
#GLENWOOD       N/A         68  59  73  CALM    29.88R
#MANASTASH CYN  N/A         74  43  33  CALM    30.03R
#NELSON 3SW     N/A         66  48  52  CALM    30.11R
#NILE           N/A         77  54  45  W1      29.23R
#RONALD 2NW     N/A         71  N/A N/A NE2     30.13S
#TEANAWAY 4NE   N/A         72  56  57  W1      N/A
#TROUT LAKE 1NE N/A         74  54  50  CALM    29.88R
#TROUT LAKE 1E  N/A         72  57  59  CALM    29.96R
$$

WAZ521-290610-
SIMCOE HIGHLANDS

CITY            SKY/WX      TMP DP  RH  WIND    PRES   REMARKS
#CENTERVILLE 1SWN/A         80  60  51  W7      29.81R
#GOLDENDALE 1NE N/A         78  35  21  CALM    N/A
#GOLDENDALE 4W  N/A         79  66  64  CALM    29.98S
#GOODNOE HILLS  N/A         85  49  29  NW6     29.84S
#LYLE 6NE       N/A         80  62  54  SW1     29.84R
$$

WAZ026-290610-
KITTITAS VALLEY

CITY            SKY/WX      TMP DP  RH  WIND    PRES   REMARKS
ELLENSBURG AP   CLEAR       79  53  41  NW14    29.99R
#ELLENSBURG CWU N/A         79  53  41  N12     29.84R
#ELLENSBURG 3NE N/A         76  55  48  N6      29.98R
#ELLENSBURG     N/A         82  53  37  NW5     N/A
#ELLENSBURG 1E  N/A         79  N/A N/A CALM    N/A
#KITTITAS 4N    N/A         77  53  43  NW6     30.01R
#KITTITAS 3S    N/A         74  55  51  CALM    29.87R
#THORP 6N       N/A         75  53  46  NW10    29.92S
$$

WAZ027-290610-
YAKIMA VALLEY

CITY            SKY/WX      TMP DP  RH  WIND    PRES   REMARKS
SUNNYSIDE AP    CLEAR       72  61  68  W5      29.90R
YAKIMA AIRPORT  CLEAR       85  48  28  NW8     29.94R
YAKIMA-VAGABOND N/A         82  46  28  SE5     29.94R
#DONALD 2NE     N/A         82  16   8  N1      28.78R
#GRANDVIEW      N/A         80  53  39  CALM    29.86R
#MABTON         N/A         83  61  48  CALM    29.88R
#NACHES 2SW     N/A         80  52  38  W9G25   29.99R
#TERRACE HTS    N/A         83  51  33  CALM    29.83R
#TOPPENISH      N/A         87  54  32  N8      29.78R
#WEST VALLEY    N/A         83  49  31  CALM    29.84R
#W YAKIMA       N/A         83  51  33  NW1     29.86R
#WHITE SWAN 5E  N/A         80  61  52  SE5     29.86R
$$

WAZ028-290610-
LOWER COLUMBIA BASIN...WASHINGTON

CITY            SKY/WX      TMP DP  RH  WIND    PRES   REMARKS
PASCO           CLEAR       80  65  60  N5      29.86S
PROSSER AWOS    N/A         79  59  50  NE5     29.92R
RICHLAND AWOS   CLEAR       81  58  46  W3      29.86S
#BENTON CITY    N/A         81  53  38  NW2     29.75R
#CONNELL 5N     N/A         77  49  37  CALM    29.84R
#CONNELL 5NW    N/A         73  58  59  CALM    29.80R
#ELTOPIA 6NW    N/A         86  53  32  CALM    28.87R
#KAHLOTUS       N/A         86  44  23  N1      29.82S
#KENNEWICK 3S   N/A         86  51  30  N1      29.83S
#PATERSON       N/A         92  55  29  NE2     29.82R HX 90
#SAGEMOOR 2W    N/A         85  53  33  NW2     29.69S
#TOUCHET 2S     N/A         75  62  64  CALM    29.82R
#WEST PASCO     N/A         82  58  44  CALM    29.85R
$$

WAZ029-290610-
FOOTHILLS OF THE BLUES...WASHINGTON

CITY            SKY/WX      TMP DP  RH  WIND    PRES   REMARKS
WALLA WALLA AP  CLEAR       80  51  36  E6      29.92R
#CLYDE 6NW      N/A         77  46  33  NE2     29.83R
#DAYTON SCHOOL  N/A         77  46  33  N2      29.96R
#LOWDEN 2SE     N/A         74  59  59  E2      29.84R
#PLEASANT VIEW 1N/A         87  42  21  W3      29.85S
#PRESCOTT       N/A         76  51  42  CALM    29.82R
#WHITMAN COLLEGEN/A         84  55  37  E2      29.88R
#WAITSBURG 5S   N/A         80  52  38  E1      29.93R
#WAITSBURG 8N   N/A         70  19  14  N1      29.90R
#WALLA WALLA U  N/A         84  58  41  CALM    29.83R
#WHITMAN MISSIONN/A         76  62  62  CALM    29.85R
$$

WAZ030-290610-
BLUE MOUNTAINS...WASHINGTON

CITY            SKY/WX      TMP DP  RH  WIND    PRES   REMARKS
#DIXIE 5SE      N/A         79  50  36  E2      29.98S
$$

ORZ009-041-WAZ024-290610-
COLUMBIA RIVER GORGE

CITY            SKY/WX      TMP DP  RH  WIND    PRES   REMARKS
HOOD RIVER AP   CLEAR       77  63  62  CALM    29.93R
THE DALLES AP   CLEAR       87  59  39  N14     29.87R
#ARLINGTON AIRPON/A         88  47  24  N1      29.85R
#LYLE           N/A         85  62  46  N3      29.88R
#MARYHILL 2W    N/A         87  62  43  CALM    N/A
#MOSIER 1S      N/A         80  47  31  N3      29.91S
#MURDOCK        N/A         85  63  48  W12     29.82R
#RUFUS DOT      N/A         91  62  38  CALM    N/A    HX 91
#SMITHVILLE     N/A         86  61  43  N15     29.74R

$$

ORZ510-290610-
NORTH CENTRAL OREGON

CITY            SKY/WX      TMP DP  RH  WIND    PRES   REMARKS
#ANTELOPE       N/A         77  44  31  N2      29.70R
#CHENOWITH 1W   N/A         80  59  49  W21     N/A
#COW CYN RST AREN/A         83  N/A N/A N8      N/A
#DUFUR 9E       N/A         81  58  46  NW3     29.90R
#GRASS VALLEY 1SN/A         77  54  45  NW1     29.96R
#KENT DOT       N/A         80  44  28  N8      N/A
#MAUPIN SCHOOL  N/A         88  58  36  CALM    29.95R
#SHANIKO 5WSW   N/A         79  39  24  N13     N/A
#SHANIKO 4NW    N/A         77  57  50  N10     30.09
#TYGH VALLEY 2NEN/A         87  58  38  N3      29.84R
#WAPANITIA AIRPON/A         79  58  49  W1      29.87R
#WASCO AIRPORT  N/A         79  56  45  SW3     N/A
#WASCO 5NE      N/A         79  59  50  CALM    29.85R
$$

ORZ511-290610-
CENTRAL OREGON

CITY            SKY/WX      TMP DP  RH  WIND    PRES   REMARKS
BEND AIRPORT    CLEAR       79  41  26  CALM    30.07R
MADRAS AIRPORT  CLEAR       79  43  28  N6      30.03R
PRINEVILLE AP   CLEAR       75  43  32  N5      30.06R
REDMOND AIRPORT CLEAR       80  37  21  N6      30.04R
#ASHWOOD SCHOOL N/A         82  41  23  CALM    29.98R
#BEND 1SW       N/A         70  46  42  E1      N/A
#BEND-AWBREY    N/A         76  45  33  CALM    29.86R
#CULVER         N/A         76  47  36  CALM    29.80R
#CULVER 8W      N/A         82  52  35  CALM    30.05R
#LAKE BILLY CHINN/A         83  N/A N/A N3      30.04R
#MADRAS 4S      N/A         N/A N/A N/A N15     30.08R
#POWELL BUTTE   N/A         75  42  31  SE1     29.94R
#PRINEVILLE 3N  N/A         73  49  43  S3      29.93R
#WARM SPRINGS   N/A         86  58  39  CALM    29.93R

$$


ORZ509-290610-
EAST SLOPES OF OREGON CASCADES

CITY            SKY/WX      TMP DP  RH  WIND    PRES   REMARKS
SISTERS AWOS    N/A         75  46  36  CALM    30.04R
#BLUE BOX PASS  N/A         69  N/A N/A CALM    N/A
#CAMP SHERMAN   N/A         70  55  59  CALM    29.96S
#LA PINE 4NW    N/A         68  49  51  CALM    29.92R
#LAVA BUTTE DOT N/A         71  39  31  CALM    N/A
#SISTERS AIRPOR N/A         74  54  50  CALM    30.17S
#SISTERS 3N     N/A         68  39  35  CALM    30.06R
#SUNRIVER       N/A         71  45  39  CALM    30.03R
#SUTTLE LK DOT  N/A         70  59  68  NW6     N/A
#TUMALO 3W      N/A         81  45  28  NW3     29.74R
#WANOGA BUTTE D N/A         70  36  29  NE5     N/A

$$

ORZ044-290610-
LOWER COLUMBIA BASIN...OREGON

CITY            SKY/WX      TMP DP  RH  WIND    PRES   REMARKS
HERMISTON       CLEAR       81  54  39  S6      29.87R
#BOARDMAN 8SW   N/A         87  49  27  NE1     29.84R
#ECHO 8SW       N/A         73  52  48  SW3     29.89S
#I-84 EX 198 DOTN/A         86  54  34  W1      N/A
#UMATILLA       N/A         82  58  44  CALM    29.77R
$$

ORZ507-290610-
NORTHERN FOOTHILLS OF THE BLUES

CITY            SKY/WX      TMP DP  RH  WIND    PRES   REMARKS
PENDLETON AIRPT CLEAR       81  42  25  CALM    29.93R
#ADAMS 3WNW     N/A         76  48  37  N1      29.84R
#ATHENA         N/A         74  52  46  CALM    29.88R
#CAYUSE         N/A         80  55  42  E5      29.83S
#HELIX SCHOOL   N/A         78  47  34  N1      29.85S
#HELIX 3N       N/A         77  47  35  CALM    29.94R
#HOLDMAN 5SE    N/A         72  44  37  CALM    29.92R
#HOLDMAN 6E     N/A         82  47  29  SW2     29.66R
#M-F GROVE ELEM N/A         80  52  38  CALM    29.90R
#M-FREEWATER 5SEN/A         76  57  52  CALM    29.93S
#PENDLETON DNTN N/A         81  43  26  CALM    29.92S
#PDT AQUATIC CTRN/A         81  41  24  CALM    29.74R
#PDT SUNRIDGE   N/A         78  47  34  CALM    29.93R
#PENDLETON 7NW  N/A         75  49  40  CALM    31.70S
#PILOT ROCK 1S  N/A         75  45  34  S6      29.97R
#PILOT ROCK     N/A         76  46  34  SW2     29.99R
#TUTUILLA       N/A         76  50  40  CALM    29.88R
#UMAPINE 2E     N/A         73  61  66  CALM    29.86R
#WESTON SCHOOL  N/A         78  48  35  N1      29.80R

$$

ORZ508-290610-
SOUTHERN FOOTHILLS OF THE BLUES

CITY            SKY/WX      TMP DP  RH  WIND    PRES   REMARKS
LEXINGTON       CLEAR       77  43  30  E9      29.99R
#CONDON 5W      N/A         80  39  23  NE7     30.03S
#HEPPNER EOC    N/A         78  46  32  SE5     29.80R
#HEPPNER 4NE    N/A         71  44  38  E3      29.86R
#LEXINGTON 2SE  N/A         73  48  41  S5      29.91F
#RUGGS 5NE      N/A         77  38  24  E1      30.20S
#RUGGS 2SW      N/A         77  43  30  S7      29.88R

$$

ORZ502-503-290610-
BLUE MOUNTAINS

CITY            SKY/WX      TMP DP  RH  WIND    PRES   REMARKS
MEACHAM         CLEAR       65  50  58  CALM    30.11S
#BATTLE MTN DOT N/A         71  45  39  N3      N/A
#CUTSFORTH PARK N/A         59  48  67  CALM    29.91R
#GREENHORN 9SW  N/A         68  46  45  CALM    26.27R
#HARDMAN 10S    N/A         68  43  40  CALM    29.97S
#HEPPNER 15SE   N/A         65  45  48  CALM    25.65S
#LADD CYN SMT   N/A         77  48  36  W1      N/A
#LADD CREEK ODOTN/A         77  51  40  CALM    N/A
#LONG CREEK HS  N/A         68  45  44  CALM    N/A
#N POWDER DOT   N/A         72  50  46  SW3     N/A
#PIKES PEAK     N/A         80  47  31  CALM    27.99S
#TOLLGATE       N/A         67  48  50  CALM    30.03S
#TROY SCHOOL    N/A         77  57  50  CALM    29.70R
#UKIAH          N/A         67  49  52  CALM    29.83R
#WESTON 4E      N/A         72  50  46  CALM    29.82S
$$

ORZ505-290610-
JOHN DAY BASIN

CITY            SKY/WX      TMP DP  RH  WIND    PRES   REMARKS
JOHN DAY        CLEAR       81  44  27  N7      30.08R
#DAYVILLE SCHOOLN/A         87  40  19  W6      29.98R
#MITCHELL       N/A         75  49  40  CALM    30.21R
#MITCHELL 8NW   N/A         80  38  22  CALM    30.04R
#MONUMENT HS    N/A         83  46  27  CALM    29.84R
#MT. VERNON 5SE N/A         79  45  30  CALM    30.06R
#SPRAY SCHOOL   N/A         82  N/A N/A CALM    N/A
$$

ORZ506-290610-
OCHOCO AND JOHN DAY HIGHLANDS

CITY            SKY/WX      TMP DP  RH  WIND    PRES   REMARKS
#HORSE RIDGE DO N/A         74  35  24  CALM    N/A
#KEYES SMT DOT  N/A         78  41  27  N3      N/A
#PAULINA SCHOOL N/A         83  37  19  N5      N/A
#PINE MTN OBS   N/A         69  39  33  N7      N/A
#PRAIRIE CITY   N/A         70  47  44  CALM    30.22R
#SENECA         N/A         72  N/A N/A CALM    N/A
#SENECA 9NW     N/A         72  43  35  CALM    29.83R
$$

ORZ049-290610-
GRANDE RONDE VALLEY

CITY            SKY/WX      TMP DP  RH  WIND    PRES   REMARKS
LA GRANDE       CLEAR       79  46  31  N10     30.03R
#COVE           N/A         72  60  66  CALM    30.06R
#COVE SCHOOL    N/A         71  55  57  CALM    30.04R
#COVE 6NW       N/A         75  54  48  CALM    29.90R
#ELGIN 3N       N/A         74  48  40  CALM    30.00R
#ELGIN 1E       N/A         79  52  39  CALM    N/A
#IMBLER SCHOOL  N/A         79  53  41  N3      29.98R
#ISLAND CITY 4N N/A         73  62  68  CALM    29.96R
#LADD CYN DOT   N/A         82  54  38  CALM    N/A
#UNION 1S       N/A         72  54  53  CALM    29.76R
$$

ORZ050-290610-
WALLOWA COUNTY

CITY            SKY/WX      TMP DP  RH  WIND    PRES   REMARKS
JOSEPH AIRPORT  CLEAR       66  45  47  S3      N/A
#ENTERPRISE AP  N/A         49  29  46  CALM    30.04R
#ENTERPRISE HS  N/A         68  50  53  CALM    30.08R
#IMNAHA SCHOOL  N/A         75  53  46  S1      29.96R
#IMNAHA 10S     N/A         74  48  40  SW6     30.02R
#JOSEPH 3N      N/A         62  49  62  CALM    30.12R
#JOSEPH 3W      N/A         68  46  45  SW2     30.00R
#LOSTINE        N/A         67  51  56  CALM    29.69R
#LOSTINE 3SE    N/A         65  47  52  CALM    30.06R
#MT HOWARD 8000 N/A         60  39  46  N2      30.42S
#PROMISE 1S     N/A         72  48  43  CALM    29.97R
#WALLOWA SCHOOL N/A         70  53  55  CALM    30.01R



$$



USA.gov is the U.S. government's official web portal to all federal, state and local government web resources and services.